Regional Weather Roundup
Issued by NWS Newport/Morehead, NC

Current Version | Previous Version | Text Only | Print | Product List | Glossary On
Versions: 1 2 3 4 5 6 7 8 9 10 11 12 13 14 15 16 17 18 19 20 21 22 23 24 25 26 27 28 29 30 31 32 33 34 35 36 37 38 39 40 41 42 43 44 45 46 47 48 49 50
000 ASUS42 KMHX 060513 RWRMHX WEATHER ROUNDUP FOR EASTERN NORTH CAROLINA NATIONAL WEATHER SERVICE NEWPORT/MOREHEAD CITY NC 1200 AM EST FRI MAR 06 2015 NOTE: "FAIR" INDICATES FEW OR NO CLOUDS BELOW 12,000 FEET WITH NO SIGNIFICANT WEATHER AND/OR OBSTRUCTIONS TO VISIBILITY NCZ015>017-031-032-045>047-102-103-060600- NORTH COAST CITY SKY/WX TMP DP RH WIND PRES REMARKS EDENTON CLOUDY 32 29 90 N15G21 30.33S ELIZABETH CITY CLOUDY 30 26 85 N22G30 30.33R WCI 17 KITTY HAWK CLOUDY 30 30 100 N14G31 30.29R WCI 19 MANTEO CLOUDY 30 28 91 N20G28 30.31R WCI 17 $$ NCZ045>047-081-094-103-104-060600- CENTRAL COAST CITY SKY/WX TMP DP RH WIND PRES REMARKS FRISCO LGT RAIN 34 33 96 N16G30 30.26R SWANQUARTER N/A 32 N/A N/A N21G28 30.27S WCI 20 $$ NCZ095-097-098-100-101-060600- SOUTHERN COAST CITY SKY/WX TMP DP RH WIND PRES REMARKS BEAUFORT LGT RAIN 35 34 96 N17G25 30.28R CEDAR ISLAND N/A 36 N/A N/A NW16G38 30.33R JACKSONVILLE CLOUDY 35 31 85 N20G29 30.29R PINEY ISLAND N/A N/A N/A N/A MISG 30.28R WILMINGTON LGT RAIN 36 33 89 N21G29 30.27R $$ NCZ011>013-027>030-043-044-078>080-089-090>093-098-060600- COASTAL PLAIN CITY SKY/WX TMP DP RH WIND PRES REMARKS AHOSKIE CLOUDY 29 25 84 N15 30.37R WCI 17 CLINTON CLOUDY 34 31 90 N12G20 30.34R ELIZABETHTOWN DRIZZLE 35 34 96 N5 30.31R GOLDSBORO CLOUDY 33 32 98 N14G21 30.33R GREENVILLE CLOUDY 32 30 93 N9 30.34S HAVELOCK LGT RAIN 35 31 85 N15G29 30.30R KENANSVILLE CLOUDY 33 32 96 N10G17 30.34R KINSTON CLOUDY 33 30 88 N14G24 30.35R NEW BERN CLOUDY 35 31 85 N14 30.33R RICHLANDS CLOUDY 34 28 80 N10G21 30.30S ROCKY MOUNT CLOUDY 32 27 81 N12 30.36R WASHINGTON CLOUDY 32 29 88 N13 30.33S WHITEVILLE CLOUDY 37 34 90 N8 30.29R $$ AMZ130-135-150-152-154-156-158-170-250-252-270-ANZ085-086-088-633-658-670-060600- MARINE OBSERVATIONS STATION/POSITION TIME TEMP WIND PRES WAVE SWELL AIR SEA DIR/SP/G HT/PER HT/PER (UTC) (F) (DEG/KT/KT) (MB) (FT/S) (FT/S) CHESAPEAKE LIGHT 0400 28 360/ 28/ 29 1026.4 64 E VA BEACH 0450 35 53 350/ 31/ 35 1024.2 12/ 8 DUCK 0400 30 36 10/ 32/ 36 1023.4 2 E DUCK 0411 35 N/A 9/ 8 2/11 10 NE DUCK NOT AVBL OREGON INLET 0400 32 44 350/ 24/ 32 1023.9 HATTERAS CG 0400 50 10/ 30/ 38 1023.3 CAPE LOOKOUT 0500 360/ 28/ 31 1024.3 BEAUFORT LAB 0400 37 49 10/ 21/ 26 1023.1 27 SE WRIGHTSVLE NOT AVBL 5 SE WRIGHTSVLE NOT AVBL 225 S CAPE HAT 0450 74 73 230/ 21/ 25 1019.3 7/ 7 5/ 7 41 SE CHARLESTON 0450 50 68 20/ 27/ 33 1020.3 6/ 5 2/11 $$

USA.gov is the U.S. government's official web portal to all federal, state and local government web resources and services.